Location: Eschertshofen
(49.3064°N, 11.5756°E)
Time: 13:40:34
(UTC+00:00)

ATLAS 2AS CENTAUR R/B - Pass Details

Date: 18 September 2020
Orbit: 939 x 1273 km, 63.7° (Epoch: 19 October)

Event Time Altitude Azimuth Distance (km) Brightness Sun altitude
Rises 21:02:33 0° 222° (SW) 4,202 5.7 -32.6°
Enters shadow 21:04:48 - 223° (SW) 3,431 5.2 -32.8°
Exits shadow 21:11:56 65° 235° (SW) 1,384 3.1 -33.5°
Maximum altitude 21:13:18 84° 311° (NW) 1,282 2.9 -33.6°
Drops below altitude 10° 21:21:12 10° 42° (NE) 3,214 5.3 -34.3°
Sets 21:23:56 0° 43° (NE) 4,151 6.0 -34.6°
